Location: Observatoire
(46.1952°N, 5.3391°E)
Time: 04:56:47
(UTC+01:00)

Altair - Pass Details

Date: 20 February 2026
Orbit: 1502 x 1682 km, 47.2° (Epoch: 7 March)

Event Time Altitude Azimuth Distance (km) Brightness Sun altitude
Rises 09:18:52 0° 286° (WNW) 4,680 9.5 15.6°
Reaches altitude 10° 09:21:52 10° 286° (WNW) 3,715 9.0 16.1°
Maximum altitude 09:31:16 78° 202° (SSW) 1,613 8.0 17.4°
Drops below altitude 10° 09:41:02 10° 118° (ESE) 3,849 11.6 18.7°
Sets 09:44:12 0° 118° (ESE) 4,856 11.6 19.1°
